Regional Weather Roundup
Issued by NWS Green Bay, WI

Home | Current Version | Previous Version | Graphics & Text | Print | Product List | Glossary Off
Versions: 1 2 3 4 5 6 7 8 9 10 11 12 13 14 15 16 17 18 19 20 21 22 23 24 25 26 27 28 29 30 31 32 33 34 35 36 37 38 39 40 41 42 43 44 45 46 47 48 49 50

000
ASUS43 KGRB 231559
RWRGRB

NORTH-CENTRAL AND NORTHEAST WISCONSIN REGIONAL WEATHER ROUNDUP
NATIONAL WEATHER SERVICE GREEN BAY WI
1100 AM CDT SAT AUG 23 2014

WIZ005-009-010>012-018-019-231700-
NORTH CENTRAL WISCONSIN

CITY           SKY/WX    TMP DP  RH WIND       PRES   REMARKS
IRONWOOD       NOT AVBL
MANITOWISH WTR NOT AVBL
ARBOR VITAE    NOT AVBL
EAGLE RIVER    NOT AVBL
LAND O LAKES   NOT AVBL
RHINELANDER    CLOUDY    70  68  93 SE6       30.07F FOG
PHILLIPS       CLOUDY    71  68  90 E3        30.05S
ANTIGO         NOT AVBL
TOMAHAWK       NOT AVBL
MERRILL        NOT AVBL
$$

WIZ013-073-231700-
NORTHEAST WISCONSIN

CITY           SKY/WX    TMP DP  RH WIND       PRES   REMARKS
IRON MOUNTAIN  CLOUDY    70  67  90 SE6       30.06S FOG
MARINETTE      PTSUNNY   72  64  78 SE12      30.05S
$$

WIZ017-030-035>037-045-231700-
CENTRAL WISCONSIN

CITY           SKY/WX    TMP DP  RH WIND       PRES   REMARKS
MEDFORD        NOT AVBL
WAUSAU         CLOUDY    72  70  93 E7        30.02F FOG
MOSINEE        CLOUDY    72  72 100 E6        30.04F FOG
MARSHFIELD     CLOUDY    72  71  97 E9        30.02F FOG
WISC RAPIDS    CLOUDY    72  70  93 E7        30.03S FOG
STEVENS POINT  NOT AVBL
WAUPACA        NOT AVBL
SHAWANO        CLOUDY    73  71  92 SE6       30.04F FOG
CLINTONVILLE   NOT AVBL
$$

WIZ038-039-048-051-231700-
FOX VALLEY

CITY           SKY/WX    TMP DP  RH WIND       PRES   REMARKS
NWS GREEN BAY  CLOUDY    77  71  82 E7        30.03F
APPLETON       CLOUDY    72  70  94 VRB6      30.04S FOG
OSHKOSH        CLOUDY    75  72  90 SE5       30.02R
FOND DU LAC    CLOUDY    76  72  87 S6        30.03R
$$

WIZ022-050-052-231700-
EAST CENTRAL WISCONSIN

CITY           SKY/WX    TMP DP  RH WIND       PRES   REMARKS
STURGEON BAY   CLOUDY    72  64  78 SE6       30.06F
MANITOWOC      NOT AVBL
SHEBOYGAN      CLOUDY    74  69  85 E7        30.04R
$$

LMZ563-521-522-541>543-231700-
LAKESHORE

STATION/POSITION TIME  TEMP    WIND        PRES    VSBY  WAVE
                       AIR SEA DIR/SP/G                  HT/PER
                 (UTC) (F)     (DEG/KT/KT) (MB)    (MI)  (FT/S)
SHEBOYGAN LKSHOR 1500   68 65  140/  3/  3 1017.0R
KEWAUNEE LKSHORE 1500   69     100/  2/  3 1016.8R
TWO RIVERS CG    1500   69 73                N/A    3 1/2  1
NORTHPORT PIER   1500   68     140/  5/  7 1018.3R
N MID LAKE BUOY  1500   67 65  100/  6/  8 1017.5R         1
S GREEN BAY BUOY 1500   72     VRB 10      1018.3R
SISTER BAY LKSHO 1500   75     130/ 10/ 13   N/A
CHAMBERS ISLAND  1500   71     110/  4/  6 1017.9R
MENOMINEE LKSHOR 1500   70     130/  7/  8 1018.2R
$$



USA.gov is the U.S. government's official web portal to all federal, state and local government web resources and services.